| time (UTC) | temp C | wind direction | speed KPH | gust KPH | rain 1hr cm | rain 24hr cm | rain mn cm | humidity % | barometer mb |
| 20260903000150 | 13 | 214 | 12.9 | 24.1 | 0.00 | 0.03 | 0.03 | 84 | 1011.6 |
| 20260902234533 | 13 | 214 | 14.5 | 27.4 | 0.00 | 0.03 | 0.03 | 80 | 1011.6 |
| 20260902233044 | 14 | 216 | 16.1 | 30.6 | 0.00 | 0.03 | 0.03 | 78 | 1011.6 |
| 20260902231534 | 14 | 219 | 16.1 | 32.2 | 0.00 | 0.03 | 0.03 | 80 | 1011.5 |
| 20260902230106 | 14 | 215 | 14.5 | 27.4 | 0.00 | 0.03 | 0.03 | 82 | 1011.6 |
| 20260902224534 | 14 | 210 | 11.3 | 20.9 | 0.00 | 0.03 | 0.03 | 83 | 1011.5 |
| 20260902223036 | 14 | 225 | 9.7 | 16.1 | 0.00 | 0.03 | 0.03 | 83 | 1011.5 |
| 20260902221536 | 13 | 222 | 9.7 | 17.7 | 0.00 | 0.03 | 0.03 | 84 | 1011.5 |
| 20260902214534 | 13 | 217 | 8.0 | 16.1 | 0.00 | 0.03 | 0.03 | 86 | 1011.6 |
| 20260902211604 | 13 | 218 | 8.0 | 17.7 | 0.03 | 0.03 | 0.03 | 85 | 1011.7 |
| 20260902210108 | 13 | 224 | 11.3 | 24.1 | 0.03 | 0.03 | 0.03 | 84 | 1011.9 |
| 20260902204535 | 13 | 215 | 11.3 | 19.3 | 0.03 | 0.03 | 0.03 | 82 | 1011.8 |
| 20260902203036 | 13 | 224 | 11.3 | 22.5 | 0.03 | 0.03 | 0.00 | 80 | 1011.7 |
| 20260902201535 | 13 | 216 | 11.3 | 20.9 | 0.00 | 0.00 | 0.00 | 80 | 1011.8 |
| 20260902200035 | 13 | 219 | 12.9 | 22.5 | 0.00 | 0.00 | 0.00 | 80 | 1011.9 |
| 20260902194642 | 13 | 226 | 14.5 | 25.7 | 0.00 | 0.00 | 0.00 | 75 | 1011.9 |
| 20260902193037 | 15 | 232 | 14.5 | 32.2 | 0.00 | 0.00 | 0.00 | 70 | 1011.7 |
| 20260902190034 | 18 | 201 | 12.9 | 24.1 | 0.00 | 0.00 | 0.00 | 56 | 1011.3 |
| 20260902184535 | 18 | 207 | 8.0 | 19.3 | 0.00 | 0.00 | 0.00 | 55 | 1011.2 |
| 20260902183037 | 18 | 201 | 9.7 | 22.5 | 0.00 | 0.00 | 0.00 | 56 | 1011.3 |
| 20260902181530 | 18 | 198 | 9.7 | 19.3 | 0.00 | 0.00 | 0.00 | 58 | 1011.4 |
| 20260902180031 | 17 | 184 | 6.4 | 17.7 | 0.00 | 0.00 | 0.00 | 66 | 1011.5 |
| 20260902174529 | 16 | 79 | 4.8 | 11.3 | 0.00 | 0.00 | 0.00 | 72 | 1011.7 |
| 20260902173033 | 15 | 54 | 3.2 | 11.3 | 0.00 | 0.00 | 0.00 | 72 | 1011.9 |
| 20260902171529 | 16 | 43 | 3.2 | 8.0 | 0.00 | 0.00 | 0.00 | 71 | 1012.1 |
| 20260902170105 | 16 | 61 | 1.6 | 8.0 | 0.00 | 0.00 | 0.00 | 76 | 1012.2 |
| 20260902164609 | 15 | 39 | 3.2 | 9.7 | 0.00 | 0.00 | 0.00 | 79 | 1012.3 |
| 20260902163031 | 15 | 61 | 4.8 | 9.7 | 0.00 | 0.00 | 0.00 | 79 | 1012.4 |
| 20260902161645 | 12 | 70 | 4.8 | 9.7 | 0.00 | 0.00 | 0.00 | 85 | 1012.7 |
| 20260902154643 | 12 | 90 | 4.8 | 8.0 | 0.00 | 0.00 | 0.00 | 87 | 1012.9 |
| 20260902153029 | 11 | 91 | 1.6 | 8.0 | 0.00 | 0.00 | 0.00 | 89 | 1013.0 |
| 20260902151531 | 11 | 95 | 4.8 | 8.0 | 0.00 | 0.00 | 0.00 | 89 | 1012.9 |
| 20260902150030 | 10 | 130 | 3.2 | 8.0 | 0.00 | 0.00 | 0.00 | 91 | 1013.1 |
| 20260902144535 | 10 | 105 | 0.0 | 3.2 | 0.00 | 0.00 | 0.00 | 92 | 1013.2 |
| 20260902143034 | 9 | 133 | 0.0 | 4.8 | 0.00 | 0.00 | 0.00 | 93 | 1013.2 |
| 20260902141536 | 8 | 157 | 1.6 | 4.8 | 0.00 | 0.00 | 0.00 | 93 | 1013.3 |
| 20260902134531 | 8 | 146 | 4.8 | 9.7 | 0.00 | 0.00 | 0.00 | 92 | 1013.2 |
| 20260902133032 | 7 | 139 | 3.2 | 6.4 | 0.00 | 0.00 | 0.00 | 92 | 1013.3 |
| 20260902130037 | 8 | 134 | 1.6 | 6.4 | 0.00 | 0.00 | 0.00 | 92 | 1013.5 |
| 20260902124535 | 8 | 149 | 4.8 | 8.0 | 0.00 | 0.00 | 0.00 | 92 | 1013.6 |
| 20260902123033 | 8 | 152 | 4.8 | 8.0 | 0.00 | 0.00 | 0.00 | 91 | 1013.7 |
| 20260902121531 | 8 | 137 | 0.0 | 6.4 | 0.00 | 0.00 | 0.00 | 91 | 1013.7 |
| 20260902114530 | 8 | 135 | 4.8 | 8.0 | 0.00 | 0.00 | 0.00 | 90 | 1013.6 |
| 20260902113035 | 8 | 135 | 4.8 | 6.4 | 0.00 | 0.00 | 0.00 | 90 | 1013.7 |
| 20260902110036 | 8 | 157 | 4.8 | 9.7 | 0.00 | 0.00 | 0.00 | 90 | 1013.7 |
| 20260902104542 | 8 | 132 | 1.6 | 4.8 | 0.00 | 0.00 | 0.00 | 89 | 1013.6 |
| 20260902104535 | 8 | 73 | 0.0 | 6.4 | 0.00 | 0.00 | 0.00 | 88 | 1013.6 |
| 20260902101530 | 9 | 169 | 0.0 | 4.8 | 0.00 | 0.00 | 0.00 | 88 | 1013.6 |
| 20260902100149 | 10 | 178 | 3.2 | 4.8 | 0.00 | 0.00 | 0.00 | 88 | 1013.8 |
| 20260902091531 | 10 | 175 | 3.2 | 6.4 | 0.00 | 0.00 | 0.00 | 88 | 1013.8 |
| 20260902084530 | 9 | 156 | 3.2 | 6.4 | 0.00 | 0.00 | 0.00 | 88 | 1013.9 |
| 20260902083035 | 9 | 157 | 1.6 | 4.8 | 0.00 | 0.00 | 0.00 | 88 | 1013.9 |
| 20260902081531 | 10 | 145 | 3.2 | 4.8 | 0.00 | 0.00 | 0.00 | 87 | 1013.8 |
| 20260902080035 | 10 | 156 | 3.2 | 6.4 | 0.00 | 0.00 | 0.00 | 86 | 1014.0 |
| 20260902074534 | 10 | 153 | 3.2 | 6.4 | 0.00 | 0.00 | 0.00 | 85 | 1014.1 |
| 20260902073109 | 10 | 157 | 1.6 | 6.4 | 0.00 | 0.00 | 0.00 | 85 | 1014.2 |
| 20260902071535 | 10 | 152 | 3.2 | 9.7 | 0.00 | 0.00 | 0.00 | 86 | 1014.4 |
| 20260902070030 | 10 | 163 | 4.8 | 8.0 | 0.00 | 0.00 | 0.00 | 85 | 1014.3 |
| 20260902064534 | 11 | 171 | 4.8 | 9.7 | 0.00 | 0.00 | 0.00 | 84 | 1014.5 |
| 20260902063029 | 11 | 143 | 3.2 | 8.0 | 0.00 | 0.00 | 0.00 | 83 | 1014.2 |
| 20260902060032 | 11 | 118 | 4.8 | 11.3 | 0.00 | 0.00 | 0.00 | 81 | 1014.2 |
| 20260902054535 | 12 | 67 | 4.8 | 8.0 | 0.00 | 0.00 | 0.00 | 79 | 1014.0 |
| 20260902051531 | 13 | 61 | 1.6 | 6.4 | 0.00 | 0.00 | 0.00 | 74 | 1014.2 |
| 20260902050106 | 13 | 7 | 1.6 | 9.7 | 0.00 | 0.00 | 0.00 | 73 | 1013.9 |
| 20260902044532 | 13 | 37 | 1.6 | 9.7 | 0.00 | 0.00 | 0.00 | 73 | 1013.7 |
| 20260902043108 | 13 | 66 | 3.2 | 6.4 | 0.00 | 0.00 | 0.00 | 71 | 1013.7 |
| 20260902041530 | 13 | 30 | 0.0 | 11.3 | 0.00 | 0.00 | 0.00 | 68 | 1013.3 |
| 20260902034530 | 14 | 51 | 3.2 | 14.5 | 0.00 | 0.00 | 0.00 | 66 | 1013.1 |
| 20260902031537 | 15 | 340 | 6.4 | 16.1 | 0.00 | 0.00 | 0.00 | 63 | 1012.5 |
| 20260902024531 | 15 | 19 | 1.6 | 11.3 | 0.00 | 0.00 | 0.00 | 62 | 1012.5 |
| 20260902023030 | 15 | 29 | 6.4 | 12.9 | 0.00 | 0.00 | 0.00 | 62 | 1012.4 |
| 20260902021538 | 16 | 52 | 6.4 | 14.5 | 0.00 | 0.00 | 0.00 | 62 | 1012.2 |
| 20260902014607 | 17 | 20 | 3.2 | 14.5 | 0.00 | 0.00 | 0.00 | 58 | 1011.8 |
| 20260902013143 | 18 | 16 | 4.8 | 20.9 | 0.00 | 0.00 | 0.00 | 55 | 1011.7 |
| 20260902011536 | 19 | 7 | 8.0 | 17.7 | 0.00 | 0.00 | 0.00 | 53 | 1011.5 |
| 20260902010144 | 20 | 4 | 11.3 | 22.5 | 0.00 | 0.00 | 0.00 | 52 | 1011.1 |
| 20260902004535 | 21 | 14 | 9.7 | 20.9 | 0.00 | 0.00 | 0.00 | 50 | 1011.1 |
| 20260902003029 | 22 | 21 | 9.7 | 20.9 | 0.00 | 0.00 | 0.00 | 49 | 1011.1 |
| 20260902001542 | 22 | 16 | 8.0 | 16.1 | 0.00 | 0.00 | 0.00 | 49 | 1011.2 |